TimeCDT,TemperatureF,Dew PointF,Humidity,Sea Level PressureIn,VisibilityMPH,Wind Direction,Wind SpeedMPH,Gust SpeedMPH,PrecipitationIn,Events,Conditions,WindDirDegrees,DateUTC
12:53 AM,43.0,39.9,89,30.22,10.0,Calm,Calm,-,N/A,,Clear,0,2011-10-01 05:53:00
1:53 AM,41.0,39.0,93,30.23,10.0,Calm,Calm,-,N/A,,Clear,0,2011-10-01 06:53:00
2:53 AM,41.0,39.0,93,30.24,10.0,Calm,Calm,-,N/A,,Clear,0,2011-10-01 07:53:00
3:53 AM,39.9,36.0,86,30.24,10.0,NNW,3.5,-,N/A,,Clear,330,2011-10-01 08:53:00
4:53 AM,44.6,35.6,71,30.25,10.0,East,4.6,-,N/A,,Clear,80,2011-10-01 09:53:00
5:53 AM,45.0,37.0,74,30.26,10.0,ENE,4.6,-,N/A,,Clear,70,2011-10-01 10:53:00
6:53 AM,44.1,37.9,79,30.29,10.0,South,4.6,-,N/A,,Clear,180,2011-10-01 11:53:00
7:53 AM,42.1,37.0,82,30.32,10.0,Calm,Calm,-,N/A,,Clear,0,2011-10-01 12:53:00
8:53 AM,50.0,41.0,71,30.32,10.0,Variable,4.6,-,N/A,,Clear,0,2011-10-01 13:53:00
9:53 AM,53.1,42.1,66,30.34,10.0,SE,8.1,-,N/A,,Clear,130,2011-10-01 14:53:00
10:53 AM,57.0,43.0,59,30.34,10.0,ESE,5.8,-,N/A,,Clear,110,2011-10-01 15:53:00
11:53 AM,62.1,42.1,48,30.33,10.0,SSE,5.8,-,N/A,,Clear,150,2011-10-01 16:53:00
12:53 PM,64.9,41.0,42,30.32,10.0,Variable,3.5,-,N/A,,Clear,0,2011-10-01 17:53:00
1:53 PM,66.9,41.0,39,30.30,10.0,Variable,3.5,-,N/A,,Clear,0,2011-10-01 18:53:00
2:53 PM,69.1,39.9,35,30.27,10.0,Variable,3.5,-,N/A,,Clear,0,2011-10-01 19:53:00
3:53 PM,70.0,41.0,35,30.26,10.0,East,4.6,-,N/A,,Clear,80,2011-10-01 20:53:00
4:53 PM,70.0,39.0,32,30.24,10.0,Variable,3.5,-,N/A,,Clear,0,2011-10-01 21:53:00
5:53 PM,69.1,39.0,33,30.23,10.0,ESE,5.8,-,N/A,,Clear,110,2011-10-01 22:53:00
6:53 PM,63.0,42.1,46,30.23,10.0,South,4.6,-,N/A,,Clear,170,2011-10-01 23:53:00
7:53 PM,53.1,43.0,69,30.24,10.0,Calm,Calm,-,N/A,,Clear,0,2011-10-02 00:53:00
8:53 PM,48.9,44.1,83,30.24,10.0,Calm,Calm,-,N/A,,Clear,0,2011-10-02 01:53:00
9:53 PM,46.9,41.0,80,30.25,10.0,Calm,Calm,-,N/A,,Clear,0,2011-10-02 02:53:00
10:53 PM,46.0,42.1,86,30.25,10.0,Calm,Calm,-,N/A,,Clear,0,2011-10-02 03:53:00
11:53 PM,43.0,39.9,89,30.26,10.0,Calm,Calm,-,N/A,,Clear,0,2011-10-02 04:53:00